Location: Chatou
(48.8898°N, 2.1586°E)
Time: 07:34:54
(UTC+00:00)

Cosmos 1655 Rocket - Pass Details

Date: 03 February 2023
Orbit: 970 x 1006 km, 83.0° (Epoch: 21 March)

Event Time Altitude Azimuth Distance (km) Brightness Sun altitude
Rises 17:24:44 0° 351° (N) 3,701 6.9 -5.9°
Reaches altitude 10° 17:27:16 10° 352° (N) 2,744 6.3 -6.3°
Maximum altitude 17:33:34 83° 80° (E) 988 4.0 -7.3°
Drops below altitude 10° 17:39:47 10° 170° (S) 2,708 6.4 -8.3°
Sets 17:42:16 0° 171° (S) 3,650 7.1 -8.6°
